TimeCST,TemperatureF,Dew PointF,Humidity,Sea Level PressureIn,VisibilityMPH,Wind Direction,Wind SpeedMPH,Gust SpeedMPH,PrecipitationIn,Events,Conditions,WindDirDegrees,DateUTC
12:15 AM,28.4,24.8,86,29.59,10.0,West,18.4,-,N/A,,Mostly Cloudy,260,2013-01-07 06:15:00
12:35 AM,30.2,24.8,80,29.58,10.0,West,19.6,-,N/A,,Partly Cloudy,260,2013-01-07 06:35:00
12:55 AM,30.2,24.8,80,29.58,10.0,WSW,18.4,-,N/A,,Clear,250,2013-01-07 06:55:00
1:15 AM,28.4,24.8,86,29.59,10.0,West,18.4,23.0,N/A,,Clear,260,2013-01-07 07:15:00
1:35 AM,28.4,24.8,86,29.58,10.0,WSW,19.6,-,N/A,,Clear,250,2013-01-07 07:35:00
1:55 AM,28.4,23.0,80,29.59,10.0,WSW,19.6,-,N/A,,Clear,250,2013-01-07 07:55:00
2:15 AM,28.4,23.0,80,29.60,10.0,WSW,24.2,-,N/A,,Clear,250,2013-01-07 08:15:00
2:35 AM,26.6,23.0,86,29.60,10.0,WSW,21.9,-,N/A,,Partly Cloudy,250,2013-01-07 08:35:00
2:55 AM,26.6,23.0,86,29.61,10.0,West,23.0,28.8,N/A,,Clear,260,2013-01-07 08:55:00
3:15 AM,28.4,23.0,80,29.60,10.0,West,21.9,-,N/A,,Clear,260,2013-01-07 09:15:00
3:35 AM,26.6,23.0,86,29.60,10.0,West,21.9,-,N/A,,Clear,260,2013-01-07 09:35:00
3:55 AM,26.6,23.0,86,29.60,10.0,West,21.9,-,N/A,,Clear,260,2013-01-07 09:55:00
4:15 AM,26.6,23.0,86,29.60,10.0,West,24.2,-,N/A,,Clear,260,2013-01-07 10:15:00
4:35 AM,26.6,23.0,86,29.60,10.0,West,26.5,33.4,N/A,,Mostly Cloudy,270,2013-01-07 10:35:00
4:55 AM,28.4,24.8,86,29.61,10.0,West,24.2,31.1,N/A,,Overcast,270,2013-01-07 10:55:00
5:15 AM,28.4,24.8,86,29.60,10.0,West,25.3,-,N/A,,Scattered Clouds,260,2013-01-07 11:15:00
5:35 AM,26.6,24.8,93,29.61,10.0,West,21.9,-,N/A,,Clear,260,2013-01-07 11:35:00
5:55 AM,26.6,24.8,93,29.61,10.0,West,21.9,-,N/A,,Clear,260,2013-01-07 11:55:00
6:35 AM,26.6,23.0,86,29.62,10.0,West,23.0,-,N/A,,Clear,260,2013-01-07 12:35:00
6:55 AM,26.6,23.0,86,29.61,10.0,West,25.3,-,N/A,,Clear,260,2013-01-07 12:55:00
7:15 AM,26.6,23.0,86,29.62,10.0,West,24.2,-,N/A,,Clear,260,2013-01-07 13:15:00
7:35 AM,26.6,23.0,86,29.62,10.0,West,26.5,32.2,N/A,,Clear,260,2013-01-07 13:35:00
7:55 AM,26.6,23.0,86,29.62,10.0,West,27.6,34.5,N/A,,Clear,270,2013-01-07 13:55:00
8:15 AM,26.6,21.2,80,29.63,10.0,West,26.5,-,N/A,,Clear,270,2013-01-07 14:15:00
8:35 AM,26.6,21.2,80,29.63,10.0,West,28.8,34.5,N/A,,Clear,270,2013-01-07 14:35:00
8:55 AM,26.6,19.4,74,29.64,10.0,West,28.8,33.4,N/A,,Clear,270,2013-01-07 14:55:00
9:15 AM,26.6,19.4,74,29.66,10.0,West,24.2,-,N/A,,Clear,270,2013-01-07 15:15:00
9:35 AM,24.8,19.4,80,29.66,10.0,West,26.5,32.2,N/A,,Clear,270,2013-01-07 15:35:00
9:55 AM,26.6,19.4,74,29.67,10.0,West,26.5,32.2,N/A,,Clear,270,2013-01-07 15:55:00
10:15 AM,26.6,19.4,74,29.68,10.0,West,27.6,-,N/A,,Clear,270,2013-01-07 16:15:00
10:35 AM,26.6,19.4,74,29.69,10.0,West,25.3,29.9,N/A,,Clear,260,2013-01-07 16:35:00
10:55 AM,26.6,19.4,74,29.70,10.0,West,24.2,31.1,N/A,,Clear,270,2013-01-07 16:55:00
11:15 AM,26.6,19.4,74,29.70,10.0,West,25.3,-,N/A,,Clear,270,2013-01-07 17:15:00
11:35 AM,26.6,19.4,74,29.71,10.0,West,23.0,26.5,N/A,,Clear,280,2013-01-07 17:35:00
11:55 AM,26.6,19.4,74,29.72,10.0,West,21.9,-,N/A,,Clear,280,2013-01-07 17:55:00
12:15 PM,26.6,19.4,74,29.72,10.0,West,23.0,-,N/A,,Clear,280,2013-01-07 18:15:00
12:35 PM,26.6,19.4,74,29.72,10.0,West,21.9,-,N/A,,Clear,280,2013-01-07 18:35:00
1:15 PM,26.6,19.4,74,29.71,10.0,West,23.0,-,N/A,,Clear,280,2013-01-07 19:15:00
1:35 PM,26.6,21.2,80,29.72,10.0,West,25.3,29.9,N/A,,Clear,280,2013-01-07 19:35:00
1:55 PM,26.6,21.2,80,29.73,10.0,WNW,20.7,27.6,N/A,,Clear,290,2013-01-07 19:55:00
2:15 PM,26.6,21.2,80,29.73,10.0,WNW,23.0,29.9,N/A,,Clear,290,2013-01-07 20:15:00
2:35 PM,26.6,19.4,74,29.75,10.0,WNW,23.0,27.6,N/A,,Clear,290,2013-01-07 20:35:00
2:55 PM,24.8,19.4,80,29.75,10.0,WNW,18.4,-,N/A,,Clear,290,2013-01-07 20:55:00
3:15 PM,24.8,19.4,80,29.76,10.0,WNW,18.4,23.0,N/A,,Clear,290,2013-01-07 21:15:00
3:35 PM,24.8,19.4,80,29.76,10.0,West,16.1,-,N/A,,Clear,280,2013-01-07 21:35:00
3:55 PM,24.8,19.4,80,29.77,10.0,West,12.7,-,N/A,,Clear,280,2013-01-07 21:55:00
4:15 PM,24.8,19.4,80,29.77,10.0,West,13.8,-,N/A,,Clear,280,2013-01-07 22:15:00
4:35 PM,23.0,17.6,80,29.78,10.0,West,12.7,-,N/A,,Clear,280,2013-01-07 22:35:00
5:15 PM,17.6,15.8,93,29.78,10.0,West,10.4,-,N/A,,Clear,270,2013-01-07 23:15:00
5:35 PM,15.8,14.0,93,29.79,10.0,WSW,10.4,-,N/A,,Clear,250,2013-01-07 23:35:00
5:55 PM,15.8,14.0,93,29.79,10.0,West,10.4,-,N/A,,Clear,260,2013-01-07 23:55:00
6:15 PM,14.0,12.2,93,29.79,10.0,WSW,10.4,-,N/A,,Clear,250,2013-01-08 00:15:00
6:35 PM,15.8,14.0,93,29.79,10.0,West,11.5,-,N/A,,Clear,260,2013-01-08 00:35:00
6:55 PM,14.0,12.2,93,29.80,10.0,West,10.4,-,N/A,,Clear,260,2013-01-08 00:55:00
7:15 PM,12.2,10.4,92,29.80,10.0,WSW,10.4,-,N/A,,Clear,250,2013-01-08 01:15:00
7:35 PM,10.4,8.6,92,29.80,10.0,WSW,9.2,-,N/A,,Clear,250,2013-01-08 01:35:00
7:55 PM,14.0,10.4,86,29.80,10.0,West,10.4,-,N/A,,Clear,260,2013-01-08 01:55:00
8:15 PM,10.4,8.6,92,29.81,10.0,WSW,6.9,-,N/A,,Clear,240,2013-01-08 02:15:00
8:35 PM,10.4,10.4,100,29.80,10.0,WSW,8.1,-,N/A,,Clear,250,2013-01-08 02:35:00
8:55 PM,8.6,6.8,92,29.80,10.0,SW,6.9,-,N/A,,Clear,230,2013-01-08 02:55:00
9:35 PM,8.6,6.8,92,29.80,10.0,SW,8.1,-,N/A,,Clear,230,2013-01-08 03:35:00
9:55 PM,8.6,6.8,92,29.80,10.0,SW,5.8,-,N/A,,Clear,230,2013-01-08 03:55:00
10:15 PM,8.6,6.8,92,29.79,10.0,SW,6.9,-,N/A,,Clear,230,2013-01-08 04:15:00
10:35 PM,8.6,6.8,92,29.78,10.0,SW,5.8,-,N/A,,Clear,230,2013-01-08 04:35:00
10:55 PM,6.8,5.0,92,29.78,10.0,SW,5.8,-,N/A,,Clear,220,2013-01-08 04:55:00
11:15 PM,6.8,5.0,92,29.79,10.0,SSW,6.9,-,N/A,,Clear,210,2013-01-08 05:15:00
11:35 PM,6.8,5.0,92,29.77,10.0,South,6.9,-,N/A,,Clear,170,2013-01-08 05:35:00
11:55 PM,5.0,1.4,85,29.77,10.0,SE,4.6,-,N/A,,Clear,140,2013-01-08 05:55:00